Weather History for Champaign, IL

Change the Weather History Date:

Saturday, November 6, 2010

  Actual Average Record
Temperature  
Mean Temperature 33 °F 46 °F  
Max Temperature 46 °F 56 °F 68 °F (1996)
Min Temperature 19 °F 36 °F 19 °F (2010)
Degree Days  
Heating Degree Days 32 19  
Month to date heating degree days 147 107  
Since 1 July heating degree days 477 568  
Cooling Degree Days 0 0  
Month to date cooling degree days 0 0  
Year to date cooling degree days 1334 944  
Moisture  
Dew Point 18 °F    
Average Humidity 58    
Maximum Humidity 84    
Minimum Humidity 31    
Precipitation  
Precipitation 0.00 in 0.11 in 0.84 in (2000)
Month to date precipitation 0.01 0.68  
Year to date precipitation 28.36 34.38  
Sea Level Pressure  
Sea Level Pressure 30.35 in    
Wind  
Wind Speed 5 mph (WSW)    
Max Wind Speed 14 mph    
Max Gust Speed 18 mph    
Visibility 10 miles    
Events      
T = Trace of Precipitation, MM = Missing Value Source: NWS Daily Summary

Daily Weather History Graph

Daily Weather History Graph

Search for Another Location

Airport:

Trip Planner

Search our weather history database for the weather conditions in past years. The results will help you decide how hot, cold, wet, or windy it might be!

Date:

Astronomy

Nov. 06, 2010 Rise Set
Actual Time 7:27 AM CDT 5:45 PM CDT
Civil Twilight 6:59 AM CDT 6:13 PM CDT
Nautical Twilight 6:27 AM CDT 6:45 PM CDT
Astronomical Twilight 5:55 AM CDT 7:17 PM CDT
Moon 8:04 AM CDT (11/6) 5:52 PM CDT (11/6)
Length of Visible Light 11h 13m
Length of Day
10h 17m
New Moon, 0% of the Moon is Illuminated
Nov 6
New Moon
Nov 13
First Quarter
Nov 21
Full
Nov 28
Last Quarter
Dec 5
New

Hourly Weather History & Observations

Time (CDT) Temp. Windchill Dew Point Humidity Pressure Visibility Wind Dir Wind Speed Gust Speed Precip Events Conditions
12:53 AM 21.9 °F 13.4 °F 17.1 °F 82% 30.20 in 10.0 mi NNW 6.9 mph - N/A   Partly Cloudy
1:53 AM 21.9 °F 15.7 °F 16.0 °F 78% 30.21 in 10.0 mi NW 4.6 mph - N/A   Clear
2:53 AM 19.9 °F 14.9 °F 16.0 °F 85% 30.23 in 10.0 mi WNW 3.5 mph - N/A   Clear
3:53 AM 19.0 °F 12.3 °F 15.1 °F 85% 30.24 in 10.0 mi WNW 4.6 mph - N/A   Clear
4:53 AM 19.9 °F 13.4 °F 16.0 °F 85% 30.26 in 10.0 mi WNW 4.6 mph - N/A   Clear
5:53 AM 19.9 °F 12.1 °F 15.1 °F 81% 30.30 in 10.0 mi NNW 5.8 mph - N/A   Clear
6:53 AM 19.9 °F - 15.1 °F 81% 30.33 in 10.0 mi Calm Calm - N/A   Clear
7:53 AM 19.9 °F - 15.1 °F 81% 30.35 in 10.0 mi Calm Calm - N/A   Clear
8:53 AM 28.0 °F - 21.0 °F 75% 30.39 in 10.0 mi Calm Calm - N/A   Clear
9:53 AM 36.0 °F - 21.9 °F 57% 30.40 in 10.0 mi Calm Calm - N/A   Clear
10:53 AM 39.0 °F 34.8 °F 19.9 °F 46% 30.42 in 10.0 mi North 5.8 mph - N/A   Clear
11:53 AM 42.1 °F 40.2 °F 19.9 °F 41% 30.41 in 10.0 mi Variable 3.5 mph - N/A   Clear
12:53 PM 43.0 °F - 19.0 °F 38% 30.40 in 10.0 mi Calm Calm - N/A   Clear
1:53 PM 44.1 °F 40.1 °F 18.0 °F 35% 30.39 in 10.0 mi SSW 6.9 mph - N/A   Clear
2:53 PM 45.0 °F - 18.0 °F 34% 30.38 in 10.0 mi Calm Calm - N/A   Clear
3:53 PM 46.0 °F 43.1 °F 18.0 °F 33% 30.39 in 10.0 mi WSW 5.8 mph - N/A   Clear
4:53 PM 45.0 °F 41.8 °F 19.0 °F 36% 30.39 in 10.0 mi SSW 5.8 mph - N/A   Clear
6:53 PM 33.1 °F 27.7 °F 17.1 °F 52% 30.39 in 10.0 mi South 5.8 mph - N/A   Clear
7:53 PM 33.1 °F 27.7 °F 18.0 °F 54% 30.39 in 10.0 mi South 5.8 mph - N/A   Partly Cloudy
8:53 PM 36.0 °F 30.3 °F 19.0 °F 50% 30.38 in 10.0 mi South 6.9 mph - N/A   Clear
9:53 PM 33.1 °F 26.1 °F 18.0 °F 54% 30.38 in 10.0 mi South 8.1 mph - N/A   Partly Cloudy
10:53 PM 37.4 °F 29.8 °F 19.4 °F 48% 30.37 in 10.0 mi South 11.5 mph - N/A   Partly Cloudy
11:53 PM 35.1 °F 27.4 °F 19.0 °F 52% 30.38 in 10.0 mi South 10.4 mph - N/A   Clear